Wind_Speed
7 6 5 5 5 5 5 4 4 3 2 2 1 0 0 1 1 1 2 2 4 4 4 5 4 4 4 5 5 6 6 6 6 6 7 7 7 7 7 7 8 8 8
6 6 5 4 4 5 4 4 3 3 2 1 1 0 0 1 1 2 2 3 3 5 5 5 4 5 5 5 6 6 6 6 6 7 7 8 8 8 8 8 9 9 9
5 5 4 4 4 4 4 3 3 2 1 1 1 0 1 2 2 2 3 4 4 5 5 6 6 5 5 6 6 6 6 7 7 8 8 8 8 9 9 9 10 10 11
4 3 3 4 4 3 2 2 2 1 1 1 1 1 2 3 3 3 5 5 5 6 6 6 6 6 6 6 6 7 7 8 8 8 8 8 9 10 11 11 11 11 11
4 3 3 3 3 2 2 2 2 2 2 2 2 3 3 4 4 5 6 6 6 6 7 7 6 6 7 7 7 8 9 9 9 10 10 11 11 12 12 12 13 13 14
4 3 3 2 2 1 1 1 2 2 2 2 3 3 3 3 4 5 6 6 7 7 7 7 7 7 7 8 9 9 10 11 11 11 11 12 13 13 14 14 14 15 15
3 3 3 2 1 1 1 1 1 2 2 2 2 3 3 4 4 5 5 6 6 6 7 8 9 8 8 9 9 10 11 11 12 13 13 14 14 14 15 15 15 16 16
3 3 3 2 1 1 1 1 1 1 2 3 3 3 4 4 4 5 5 5 6 6 7 7 8 9 9 10 10 10 11 12 13 14 15 15 15 15 16 16 16 17 17
1 1 1 1 1 2 2 2 2 2 3 3 4 4 4 5 5 5 6 6 7 7 8 8 8 8 9 10 10 11 12 12 13 14 15 15 16 16 16 17 17 17 17
0 1 0 0 1 2 2 3 3 3 3 3 4 4 5 5 5 6 6 7 7 8 8 8 9 9 9 10 11 11 12 13 14 14 15 16 16 16 16 16 17 17 18
1 1 1 1 1 2 2 2 3 3 3 3 3 4 4 5 6 6 7 7 8 8 9 9 10 10 11 11 12 12 13 13 14 14 15 15 16 17 17 17 17 17 18
2 2 2 1 1 2 2 2 2 3 4 4 4 4 5 6 7 8 8 8 9 9 9 10 11 11 11 12 12 13 13 14 14 15 15 15 15 16 17 17 18 18 18
3 3 2 2 2 2 3 3 3 3 4 5 5 6 7 7 7 8 8 9 10 10 10 11 11 12 11 12 12 13 14 14 14 15 15 15 15 16 17 17 17 17 18
3 3 2 2 2 3 3 3 4 4 5 6 7 7 7 8 8 9 9 9 10 11 11 11 12 12 12 12 12 12 13 13 14 15 15 15 16 16 17 17 17 18 18
3 3 3 2 3 3 4 4 5 6 7 7 8 8 8 9 9 10 10 11 11 11 12 12 13 13 13 13 13 13 14 14 14 15 15 16 16 17 17 17 18 18 18
4 3 3 3 3 4 4 5 6 6 6 7 8 9 9 10 10 11 11 11 12 13 13 14 14 14 15 15 15 15 15 16 16 16 16 17 17 17 18 18 18 19 19
4 4 4 5 5 5 6 6 7 7 7 8 8 9 9 10 11 11 12 13 13 14 14 14 14 15 15 15 15 16 16 16 16 17 17 18 18 19 18 18 19 19 20
5 5 5 6 6 6 6 7 8 8 8 9 9 10 10 11 12 12 13 14 14 15 15 16 16 16 16 16 17 17 18 18 18 18 19 19 19 19 19 19 20 21 21
7 7 7 6 6 6 7 8 9 10 10 11 11 12 12 13 13 14 14 14 15 16 16 17 17 17 17 18 18 18 18 19 20 20 20 21 21 21 21 21 22 23 23
9 9 8 8 8 8 9 9 10 11 12 13 13 13 13 14 14 15 15 16 16 17 17 18 18 18 19 19 20 20 20 20 21 22 22 22 23 23 23 23 24 24 24
11 10 10 10 10 10 11 11 12 13 13 14 15 15 15 15 16 16 16 17 18 18 18 19 19 19 20 20 21 21 22 22 22 23 23 24 24 25 25 25 25 25 25
12 12 12 12 12 12 13 14 14 15 15 15 16 17 17 17 18 18 19 19 19 20 20 20 20 20 21 21 22 23 23 23 24 24 24 24 25 25 25 25 25 25 25
14 14 14 14 14 15 15 16 16 17 17 18 18 19 19 19 20 20 20 20 21 21 22 22 22 22 22 23 23 23 24 23 24 24 24 24 24 24 24 25 25 25 25
14 14 15 15 16 16 17 17 18 19 19 20 20 21 22 21 22 23 23 23 23 23 23 23 23 23 23 23 23 24 24 25 25 26 26 25 25 25 26 26 26 26 25
14 15 16 17 18 18 18 19 20 21 21 22 22 23 23 24 24 24 25 25 24 24 24 24 24 25 25 25 25 26 26 27 27 27 27 27 27 26 27 28 27 27 26
15 17 18 19 19 19 20 21 21 22 23 23 24 25 25 25 26 26 26 26 26 26 26 26 27 27 28 28 28 28 28 29 29 29 29 29 28 28 29 29 29 28 28
Wind_Direction
141 146 148 152 156 156 158 155 153 148 156 162 165 142 13 310 289 284 269 271 279 280 279 284 277 265 271 273 270 265 262 265 266 264 264 264 264 263 259 260 262 262 265
138 140 147 149 152 160 159 163 165 159 154 141 190 268 344 337 315 300 303 287 279 287 283 280 280 274 273 270 267 271 272 271 272 272 271 268 266 263 261 263 266 265 266
124 130 143 153 163 163 164 173 178 185 167 183 235 298 280 285 297 300 297 296 293 294 286 282 279 275 276 274 273 269 273 276 275 276 275 270 265 264 263 265 269 268 269
126 131 144 157 162 163 170 180 200 230 228 231 245 273 279 284 282 287 287 286 287 289 287 283 282 278 278 276 274 275 281 279 280 278 277 273 271 270 267 268 270 268 270
132 138 145 154 158 166 187 203 233 235 250 259 267 278 289 292 288 284 281 282 285 284 285 284 284 280 278 277 273 278 281 280 279 275 275 273 272 273 269 270 270 269 270
112 120 133 146 155 174 230 258 242 230 254 268 270 276 295 294 291 292 289 285 281 280 281 281 279 277 277 273 275 281 282 278 278 277 276 274 272 271 268 268 272 272 271
96 99 114 116 139 213 263 267 241 265 271 288 279 272 292 295 298 296 294 291 287 285 282 282 277 272 272 274 277 279 283 282 280 278 277 276 275 273 274 274 275 275 273
98 107 119 128 179 221 229 224 258 280 273 288 290 290 288 286 294 298 302 296 290 290 290 289 285 282 280 279 279 280 288 289 284 279 279 281 280 279 277 276 276 276 276
110 124 131 191 242 248 251 250 261 294 296 286 283 281 285 297 300 298 300 302 301 296 294 291 287 286 284 283 280 283 288 291 291 286 283 282 283 283 281 279 277 277 276
206 240 178 324 293 287 281 283 274 285 297 298 298 285 287 296 300 299 299 299 298 298 298 295 295 292 289 287 286 287 290 292 293 292 289 286 285 286 285 283 280 278 279
15 330 325 320 320 313 295 287 299 295 299 301 300 297 291 294 297 299 299 299 297 298 296 295 296 294 291 289 289 290 293 294 294 294 293 292 288 284 284 284 284 281 281
15 355 335 326 312 315 309 292 290 290 300 300 294 304 306 302 301 298 297 297 298 298 297 299 300 300 295 291 292 291 293 294 293 293 293 293 292 290 287 285 284 284 283
14 9 355 334 311 306 306 302 297 297 302 302 296 301 302 305 308 305 305 303 303 303 301 300 301 302 299 296 294 293 293 294 293 292 292 292 291 289 288 287 287 286 285
354 343 330 323 313 299 299 300 300 298 300 300 299 299 301 305 308 311 310 307 305 306 307 304 303 303 301 300 298 296 297 297 297 296 295 293 293 293 292 291 290 289 289
344 333 323 311 311 307 297 299 298 298 299 298 298 299 303 305 308 311 310 306 308 308 307 304 303 304 302 298 297 296 298 300 300 300 299 297 294 294 294 293 292 291 291
323 317 308 302 303 309 311 307 305 305 304 307 306 300 300 304 307 311 314 315 313 312 312 309 306 306 305 301 299 299 298 296 296 297 298 297 297 297 296 295 294 292 291
302 296 292 293 292 296 298 302 307 312 315 317 317 315 312 311 311 310 312 313 312 311 310 310 309 310 309 306 303 301 300 299 297 298 298 296 296 295 294 295 296 295 293
285 291 289 290 289 293 298 301 304 309 313 317 320 320 319 317 318 317 315 314 312 311 311 310 309 308 308 306 304 301 300 299 297 297 296 297 297 295 294 294 294 294 293
283 287 291 292 294 295 299 301 303 307 309 311 313 315 314 314 316 316 316 314 313 311 311 311 310 309 308 306 304 301 299 299 299 298 298 297 297 296 294 294 294 294 293
282 285 285 288 292 293 296 297 300 303 305 306 308 310 312 312 313 313 313 313 314 314 313 313 311 310 308 306 304 302 301 300 299 298 297 296 296 295 295 294 293 293 294
282 279 278 282 286 290 294 296 298 301 302 302 304 306 306 307 308 309 310 310 311 312 312 312 312 310 309 307 304 302 301 300 299 299 297 296 295 295 294 295 294 294 293
283 280 279 281 284 288 290 292 294 297 299 301 301 302 304 305 306 306 306 307 308 309 310 310 310 309 308 307 306 305 303 303 301 299 298 299 298 297 296 295 296 296 295
283 278 277 281 283 284 286 288 290 293 295 297 298 299 301 302 304 305 305 306 309 311 310 309 309 307 306 306 306 305 304 303 302 300 298 299 300 299 299 298 297 296 296
283 281 280 279 282 282 284 287 289 291 293 295 297 298 298 298 300 301 303 303 304 305 307 306 307 308 307 306 305 305 304 304 303 302 300 299 297 297 297 297 297 296 295
284 284 282 280 281 281 283 285 287 290 291 294 296 297 297 296 297 299 301 301 300 300 302 303 304 304 304 305 304 303 302 302 302 301 300 298 296 295 295 295 296 296 296
284 283 283 281 283 283 284 286 287 288 290 292 294 294 295 296 297 299 298 298 297 297 298 300 301 301 301 302 302 302 302 301 300 299 298 297 297 294 293 293 292 293 293
Height
5879 5880 5881 5883 5884 5885 5886 5886 5887 5887 5888 5888 5889 5889 5889 5889 5889 5889 5889 5889 5889 5889 5889 5889 5888 5888 5888 5888 5888 5888 5887 5888 5888 5888 5888 5888 5888 5888 5888 5888 5888 5888 5888
5880 5881 5882 5883 5884 5885 5886 5886 5887 5888 5888 5888 5889 5889 5889 5888 5888 5889 5889 5889 5889 5889 5888 5888 5888 5888 5887 5887 5887 5887 5887 5887 5886 5886 5886 5886 5886 5886 5886 5886 5886 5886 5886
5881 5882 5883 5884 5884 5885 5886 5887 5887 5887 5888 5888 5889 5889 5889 5888 5888 5888 5888 5888 5888 5888 5888 5887 5887 5886 5886 5886 5886 5886 5886 5885 5885 5885 5885 5884 5884 5885 5884 5884 5884 5884 5884
5882 5883 5883 5884 5885 5885 5886 5886 5887 5887 5888 5888 5888 5888 5888 5888 5888 5888 5888 5887 5887 5887 5887 5886 5886 5885 5885 5885 5884 5884 5884 5883 5883 5883 5883 5883 5882 5882 5882 5882 5882 5881 5881
5882 5883 5884 5884 5885 5886 5886 5886 5887 5887 5887 5888 5888 5888 5888 5887 5887 5887 5887 5886 5886 5886 5885 5885 5884 5884 5884 5883 5883 5883 5882 5882 5881 5881 5881 5880 5880 5880 5879 5879 5879 5879 5878
5882 5883 5884 5885 5885 5886 5886 5886 5886 5887 5887 5887 5887 5887 5887 5887 5886 5886 5886 5885 5885 5884 5884 5883 5883 5882 5882 5882 5881 5881 5880 5879 5879 5879 5878 5878 5877 5877 5876 5876 5876 5875 5875
5883 5883 5884 5885 5885 5886 5886 5886 5886 5886 5886 5887 5887 5886 5886 5886 5885 5885 5885 5884 5883 5883 5882 5881 5881 5880 5880 5880 5879 5879 5878 5877 5876 5876 5875 5875 5874 5874 5873 5872 5872 5872 5871
5884 5884 5884 5885 5885 5885 5886 5886 5886 5886 5886 5886 5886 5886 5885 5886 5884 5884 5883 5883 5882 5881 5881 5880 5879 5878 5878 5877 5877 5876 5875 5874 5873 5873 5872 5872 5871 5870 5870 5869 5869 5868 5867
5884 5884 5885 5885 5885 5885 5885 5885 5885 5885 5885 5885 5885 5885 5885 5884 5884 5883 5882 5882 5881 5880 5879 5878 5877 5876 5875 5875 5874 5874 5873 5872 5871 5870 5869 5868 5867 5866 5866 5865 5864 5864 5863
5885 5884 5884 5885 5885 5884 5884 5884 5884 5884 5884 5884 5884 5884 5884 5883 5883 5882 5881 5880 5879 5878 5877 5876 5875 5874 5873 5872 5872 5871 5870 5869 5868 5867 5866 5865 5864 5863 5862 5861 5860 5860 5859
5885 5884 5884 5885 5884 5884 5884 5884 5884 5883 5883 5883 5883 5882 5882 5881 5881 5880 5880 5879 5877 5876 5875 5874 5873 5872 5871 5870 5869 5868 5867 5866 5865 5863 5862 5861 5860 5859 5858 5857 5856 5855 5854
5885 5884 5884 5884 5884 5884 5883 5883 5883 5883 5883 5882 5882 5881 5881 5880 5879 5879 5878 5877 5876 5875 5873 5872 5871 5870 5868 5867 5866 5865 5864 5863 5861 5860 5859 5857 5856 5855 5854 5853 5852 5851 5850
5885 5884 5884 5884 5884 5884 5884 5883 5883 5882 5882 5881 5881 5880 5880 5879 5878 5877 5876 5875 5874 5872 5871 5870 5869 5867 5866 5864 5863 5862 5861 5859 5858 5856 5855 5854 5852 5851 5850 5849 5848 5847 5845
5885 5884 5884 5884 5884 5884 5883 5883 5882 5882 5881 5881 5880 5879 5879 5878 5877 5875 5874 5873 5872 5871 5869 5868 5866 5864 5863 5862 5860 5859 5857 5856 5854 5853 5851 5850 5849 5847 5846 5845 5843 5842 5841
5884 5884 5883 5883 5883 5883 5882 5882 5882 5881 5880 5880 5879 5878 5877 5876 5875 5873 5872 5871 5870 5868 5867 5865 5864 5862 5860 5859 5857 5856 5854 5853 5851 5849 5848 5846 5845 5843 5842 5841 5839 5838 5837
5883 5883 5883 5882 5882 5882 5881 5881 5880 5880 5879 5878 5877 5876 5875 5874 5873 5871 5870 5869 5867 5866 5864 5863 5861 5859 5857 5855 5854 5852 5851 5849 5848 5846 5844 5842 5841 5839 5838 5836 5835 5833 5832
5882 5882 5882 5881 5881 5880 5880 5880 5879 5878 5877 5877 5876 5874 5873 5872 5871 5869 5868 5866 5865 5863 5862 5860 5858 5856 5854 5852 5850 5849 5847 5845 5844 5842 5840 5839 5837 5835 5834 5832 5831 5829 5827
5881 5880 5880 5880 5879 5879 5879 5878 5878 5877 5876 5876 5874 5873 5872 5870 5868 5867 5865 5864 5862 5861 5859 5857 5855 5853 5851 5849 5847 5845 5843 5841 5840 5838 5836 5834 5833 5831 5829 5827 5826 5824 5822
5879 5878 5878 5878 5878 5877 5877 5877 5876 5876 5875 5874 5872 5871 5870 5868 5866 5865 5863 5861 5859 5857 5855 5853 5851 5849 5847 5845 5843 5841 5839 5837 5835 5833 5831 5829 5828 5826 5824 5822 5820 5818 5816
5877 5877 5876 5876 5876 5875 5875 5875 5874 5873 5872 5871 5870 5869 5867 5865 5864 5862 5860 5858 5856 5854 5852 5850 5847 5845 5843 5840 5838 5836 5834 5832 5830 5828 5826 5824 5822 5820 5818 5816 5814 5812 5810
5874 5874 5874 5874 5873 5873 5872 5872 5871 5870 5869 5868 5867 5865 5864 5862 5861 5859 5857 5855 5853 5850 5848 5846 5843 5841 5838 5836 5834 5831 5829 5827 5825 5822 5820 5818 5816 5814 5811 5809 5807 5805 5803
5870 5870 5870 5870 5870 5869 5869 5868 5868 5867 5866 5865 5863 5862 5860 5858 5857 5855 5853 5851 5849 5846 5844 5841 5839 5836 5834 5831 5829 5826 5823 5821 5819 5817 5814 5812 5809 5807 5805 5802 5800 5798 5795
5866 5866 5867 5866 5866 5866 5865 5864 5864 5863 5862 5861 5859 5857 5856 5854 5852 5850 5848 5846 5844 5841 5839 5836 5833 5831 5828 5826 5823 5821 5818 5815 5813 5811 5808 5806 5803 5801 5798 5795 5793 5791 5788
5862 5862 5862 5862 5862 5861 5861 5860 5859 5858 5857 5856 5854 5853 5851 5849 5847 5845 5843 5840 5838 5836 5833 5830 5828 5825 5823 5820 5818 5815 5812 5810 5807 5804 5801 5799 5796 5794 5791 5788 5786 5784 5782
5858 5858 5858 5857 5857 5856 5856 5855 5854 5853 5852 5851 5849 5847 5845 5844 5842 5839 5837 5835 5832 5830 5827 5824 5822 5819 5817 5814 5811 5809 5806 5803 5800 5797 5794 5792 5789 5787 5784 5781 5779 5777 5775
5854 5854 5853 5852 5852 5851 5850 5849 5849 5847 5846 5845 5843 5841 5839 5837 5835 5833 5830 5828 5826 5823 5821 5818 5815 5813 5810 5807 5804 5802 5799 5795 5793 5790 5787 5784 5781 5779 5777 5774 5771 5769 5767